User: anonymous   Login
Location: Unspecified
(0.0000°N, 0.0000°E)
Time: 08:51:18
(UTC+00:00)
Language:

Optus B3 - Orbit

View from above orbital plane
View from above orbital plane
View from above satellite
View from above satellite

Ground track
Ground track

The orbit data is extracted from the following two-line orbital elements,

1 23227U 94055A   17174.45742661 -.00000006 +00000-0 +00000-0 0  9991
2 23227 007.4057 050.2503 0004341 293.0331 316.6759 00.98695238083513
Epoch (UTC): 23 June 2017 10:58:41
Eccentricity: 0.0004341
inclination: 7.4057°
perigee height: 36215 km
apogee height: 36252 km
right ascension of ascending node: 50.2503°
argument of perigee: 293.0331°
revolutions per day: 0.98695238
mean anomaly at epoch: 316.6759°
orbit number at epoch: 8351

The dashed part of the orbit path shows where the satellite is in the earth's shadow,  

DLR